This is the latest recevied weather packets stored in our database for station/object KO4ZGL-13. If no packets are shown the sender has not sent any weather packets the latest 10 day(s).
| Time | Temp. | Humidity | Pressure | Rain* | Wind** | Luminosity | Snow |
|---|---|---|---|---|---|---|---|
| 1788608969 | 23.89° C | 99% | 1014.5 hPa | 0 mm | - | 34 W/m² | - |
| 1788608669 | 23.33° C | 99% | 1014.5 hPa | 0 mm | - | 26 W/m² | - |
| 1788608368 | 23.89° C | 99% | 1014.5 hPa | 0 mm | - | 23 W/m² | - |
| 1788608063 | 23.89° C | 99% | 1014.3 hPa | 0 mm | - | 21 W/m² | - |
| 1788607758 | 23.89° C | 99% | 1014.4 hPa | 0 mm | - | 17 W/m² | - |
| 1788607454 | 23.89° C | 99% | 1014.1 hPa | 0 mm | - | 14 W/m² | - |
| 1788607149 | 23.33° C | 99% | 1014.5 hPa | 0 mm | - | 12 W/m² | - |
| 1788606848 | 23.33° C | 99% | 1014.3 hPa | 0 mm | - | 9 W/m² | - |
| 1788606542 | 23.33° C | 99% | 1014.3 hPa | 0 mm | - | 6 W/m² | - |
| 1788606236 | 23.33° C | 99% | 1014.5 hPa | 0 mm | - | 3 W/m² | - |
| 1788605932 | 23.89° C | 99% | 1014.3 hPa | 0 mm | - | 1 W/m² | - |
| 1788605630 | 23.89° C | 99% | 1014.2 hPa | 0 mm | - | 0 W/m² | - |
| 1788605325 | 23.33° C | 99% | 1014.2 hPa | 0 mm | - | 0 W/m² | - |
| 1788605022 | 23.33° C | 99% | 1014.3 hPa | 0 mm | - | 0 W/m² | - |
| 1788604721 | 23.89° C | 99% | 1014.1 hPa | 0 mm | - | 0 W/m² | - |
| 1788604417 | 23.33° C | 99% | 1014.2 hPa | 0 mm | - | 0 W/m² | - |
| 1788604112 | 23.89° C | 99% | 1014.3 hPa | 0 mm | - | 0 W/m² | - |
| 1788603809 | 23.89° C | 99% | 1014.2 hPa | 0 mm | - | 0 W/m² | - |
| 1788603502 | 23.89° C | 99% | 1014.2 hPa | 0 mm | - | 0 W/m² | - |
| 1788603201 | 23.89° C | 99% | 1014.2 hPa | 0 mm | - | 0 W/m² | - |
| 1788602895 | 23.89° C | 99% | 1014.1 hPa | 0 mm | - | 0 W/m² | - |
| 1788602592 | 23.89° C | 99% | 1014.1 hPa | 0 mm | - | 0 W/m² | - |
| 1788602291 | 23.89° C | 99% | 1014.1 hPa | 0 mm | - | 0 W/m² | - |
| 1788601991 | 23.89° C | 99% | 1013.8 hPa | 0 mm | - | 0 W/m² | - |
| 1788601686 | 23.89° C | 99% | 1013.9 hPa | 0 mm | - | 0 W/m² | - |
* Rain latest hour (hover to see other rain measurements)
** Current wind speed in m/s (hover to see current wind gust speed)